Theta_e
327 327 327 327 327 327 328 327 327 326 327 327 327 327 327 328 329 329 328 328 328 328 328 328 326 326 325 325 326 325 323 322 321 321 319 318 317 317 315 315 315 316
326 326 326 327 326 327 328 328 328 326 326 326 327 327 328 328 329 329 328 327 326 326 327 327 326 325 324 324 324 323 321 320 319 318 317 316 316 316 315 314 314 315
326 326 326 326 326 327 327 328 328 327 326 326 327 327 327 327 328 327 327 326 325 325 326 326 325 325 324 323 322 320 319 318 318 316 317 316 316 316 316 314 315 315
325 326 326 326 326 327 327 327 327 327 326 326 325 325 326 325 326 325 325 319 324 324 325 324 324 324 323 321 320 318 317 317 317 316 316 315 314 315 314 314 313 313
325 325 326 326 326 327 327 326 325 325 325 325 325 325 324 322 322 322 322 321 322 322 322 322 323 322 321 320 319 315 314 312 314 314 313 312 311 313 313 312 311 310
325 325 325 326 326 325 325 325 325 324 324 324 325 324 324 323 322 320 319 318 319 319 319 320 320 320 318 316 316 315 313 310 311 312 310 307 305 308 309 310 308 305
322 323 323 324 324 324 324 324 324 323 324 325 326 323 324 322 320 319 318 317 317 316 317 316 316 315 315 314 313 311 310 309 308 310 307 305 304 303 305 306 306 304
321 322 323 323 322 323 323 323 324 324 323 324 322 321 320 318 317 316 315 315 315 315 315 315 315 314 312 311 311 309 308 309 308 308 306 306 305 303 303 305 305 303
319 320 320 320 319 319 319 319 320 321 321 319 317 315 314 315 314 312 311 312 312 311 312 311 311 310 309 310 310 308 306 306 307 307 306 304 304 303 302 302 301 300
315 316 316 317 316 316 316 316 315 314 313 314 313 310 309 309 310 309 308 309 309 308 308 307 306 305 306 308 308 307 306 305 304 304 303 302 301 300 300 300 299 298
311 310 310 311 312 311 312 311 309 308 307 310 307 306 306 305 304 304 305 306 306 305 304 303 303 303 304 304 306 306 305 304 304 304 303 301 300 299 296 300 299 298
307 307 308 308 309 309 308 308 307 306 306 305 305 305 302 302 303 302 303 304 303 303 302 300 299 301 302 300 299 299 302 303 302 302 301 300 299 300 300 301 299 298
304 305 306 305 306 306 303 302 303 301 303 302 302 303 301 300 298 299 298 300 299 298 299 298 298 298 298 297 297 299 299 299 297 298 298 297 297 297 297 297 296 295
301 301 303 303 301 300 300 299 299 299 299 297 297 299 298 298 298 298 296 296 296 296 296 295 296 295 294 296 297 297 297 296 296 295 293 293 293 293 293 292 291 291
298 298 299 298 298 299 298 298 297 295 295 295 296 296 297 295 296 295 294 292 291 291 292 293 294 293 294 295 295 296 297 296 296 294 292 291 291 290 289 289 290 290
296 295 296 296 296 296 295 295 294 294 294 294 294 293 292 292 293 293 293 292 290 290 290 291 292 293 291 293 295 296 296 296 294 292 292 291 289 288 288 289 289 289
295 294 294 295 294 294 293 293 292 293 293 292 292 292 292 292 293 292 291 292 290 290 290 291 292 291 290 294 294 294 295 294 293 292 292 291 290 290 289 289 289 289
294 294 293 293 293 293 293 292 291 292 292 291 291 291 291 292 292 292 291 291 291 291 291 291 290 289 292 293 293 293 292 293 293 292 292 292 292 291 290 289 288 288
294 294 293 292 292 292 292 291 291 291 291 291 291 291 291 292 292 292 292 292 292 292 291 290 290 290 292 292 292 292 292 293 294 294 293 292 291 290 290 289 288 287
294 294 293 292 291 291 292 292 292 292 291 292 291 291 292 292 291 292 293 293 294 293 292 291 290 289 292 292 291 291 292 293 294 292 292 291 290 289 289 289 288 287
293 293 292 291 291 291 292 292 292 292 289 290 291 291 291 291 291 291 293 291 294 295 294 292 291 290 291 291 290 291 291 291 292 291 290 290 289 289 289 288 288 288
293 293 292 291 291 290 290 290 290 290 289 290 291 292 290 291 290 291 290 291 292 294 293 292 291 290 291 290 290 291 290 291 290 289 289 288 288 288 288 288 289 288
293 292 291 290 290 290 289 289 288 289 288 290 289 290 289 289 289 290 290 290 290 291 293 293 291 290 290 290 290 290 289 289 289 287 287 287 287 287 287 288 288 288
292 292 290 289 289 289 289 289 290 290 289 289 290 289 289 289 289 289 289 289 289 289 292 291 290 289 289 290 289 289 289 288 288 287 286 286 286 286 287 287 286 285
291 291 290 289 289 289 288 288 288 288 289 289 291 290 289 289 289 289 288 289 288 289 287 289 289 288 289 289 288 288 288 288 287 286 285 285 285 285 286 286 285 285
290 288 288 288 288 288 287 288 289 288 288 289 289 289 289 289 289 288 287 288 288 287 288 290 289 288 289 288 288 288 288 287 287 287 285 284 284 284 284 284 285 285
Wind_Speed
17 14 16 13 15 13 13 14 13 14 15 14 13 12 12 12 13 13 12 12 12 12 12 12 10 9 8 8 10 9 8 9 8 8 8 8 8 7 7 8 8 7
18 16 12 12 12 11 12 13 13 12 13 14 13 12 12 12 13 14 13 12 10 11 12 12 10 10 9 9 9 9 8 8 8 5 7 8 7 9 8 8 7 7
17 17 16 15 14 15 13 13 12 11 11 12 13 12 12 11 14 12 11 12 11 12 12 12 11 11 10 9 8 8 7 8 8 7 7 9 8 8 9 8 8 9
17 16 14 15 15 15 12 12 11 11 11 11 13 12 11 9 11 11 11 11 11 11 11 11 10 10 9 7 8 7 8 9 7 8 8 7 7 7 8 8 8 8
15 15 15 14 13 13 12 12 13 13 13 12 11 12 10 9 11 11 10 10 10 10 9 10 9 9 8 8 8 7 7 6 7 7 7 7 5 7 7 8 8 8
11 11 12 13 11 11 9 11 12 12 12 12 12 11 12 12 12 11 11 10 9 9 9 9 9 8 7 8 7 9 8 8 7 8 8 8 6 5 5 7 7 6
14 12 12 9 10 12 13 13 12 10 12 12 12 12 12 11 10 10 10 10 10 9 10 9 9 8 7 8 7 7 7 9 8 8 9 8 8 7 4 6 7 8
13 11 11 10 10 11 12 11 11 10 11 11 12 10 10 9 9 9 9 9 9 9 9 10 9 9 8 8 9 8 7 8 10 9 8 8 8 8 6 5 7 8
11 10 9 10 10 9 10 9 8 8 8 8 7 7 7 8 9 8 8 9 9 9 9 8 9 9 8 9 10 10 9 8 9 10 9 8 8 9 8 7 7 7
7 6 7 8 9 8 9 8 7 6 5 6 6 5 7 6 6 7 8 8 8 8 9 8 8 8 8 8 11 10 9 9 7 8 10 10 10 8 8 8 8 7
5 5 6 7 7 5 6 5 5 5 5 6 6 6 6 6 5 5 7 8 8 8 8 8 8 8 8 6 7 9 9 9 8 9 9 7 8 7 7 8 8 9
5 4 6 6 6 6 6 5 5 5 6 5 7 8 7 6 7 6 7 7 6 8 8 7 7 7 9 8 6 6 6 7 8 9 9 8 7 7 8 8 8 8
3 5 4 4 4 4 3 3 4 4 5 5 5 6 8 7 5 5 4 6 6 5 7 7 7 6 6 7 7 7 8 8 7 7 7 7 7 7 7 6 6 6
4 3 3 4 3 3 3 4 4 4 4 4 4 6 6 7 8 8 5 5 5 6 5 6 7 7 5 7 7 7 8 9 10 9 9 8 7 6 6 6 6 5
3 3 3 4 4 4 4 4 4 3 4 4 4 4 4 4 4 7 8 7 5 4 5 4 7 8 7 8 8 7 8 10 9 10 11 9 8 7 6 6 6 5
4 3 4 4 4 5 4 5 4 5 5 5 4 4 5 5 6 5 6 9 10 7 5 6 7 5 8 12 11 10 8 8 9 10 9 8 8 7 7 6 6 6
4 4 4 5 4 5 5 5 5 5 6 6 6 5 7 6 7 8 7 9 12 11 9 6 5 5 10 9 11 14 11 9 10 9 8 9 9 10 9 9 8 8
5 5 5 5 5 6 6 6 6 6 7 7 7 6 7 6 7 8 8 7 8 9 8 7 6 7 11 10 11 12 12 10 10 9 9 10 10 9 9 10 10 9
5 6 5 6 5 6 7 7 7 7 8 9 8 7 7 8 8 8 8 6 8 8 7 7 7 10 12 13 14 15 14 13 10 11 10 9 8 9 9 10 10 9
5 5 6 6 5 6 7 8 8 8 7 7 8 7 7 7 6 8 8 7 7 7 7 6 7 11 13 13 14 15 16 12 10 9 7 8 8 8 8 9 10 9
6 5 6 6 6 6 6 7 7 6 5 4 5 6 6 7 7 6 7 5 8 8 7 7 6 12 14 15 15 17 15 9 8 7 7 7 7 8 9 8 8 8
7 7 6 6 6 4 3 4 3 5 6 4 3 3 3 3 3 5 7 6 5 8 9 8 7 14 14 15 17 17 15 7 8 8 8 8 9 9 8 7 7 7
6 7 7 6 4 4 4 3 4 4 3 4 5 4 4 3 5 4 4 6 6 6 8 9 8 12 14 16 18 18 11 6 8 6 7 8 9 8 7 7 7 8
5 6 7 5 5 5 4 3 3 3 4 3 4 5 5 4 4 4 3 4 6 6 6 9 9 13 15 18 19 17 11 8 7 7 7 7 8 7 6 7 7 7
5 5 5 5 5 4 4 5 4 4 3 3 3 4 4 4 4 5 4 3 3 4 6 6 9 11 14 17 16 14 10 6 7 7 8 7 7 7 7 6 8 6
4 3 4 5 5 5 4 4 4 4 4 5 4 3 4 4 4 4 4 3 3 4 5 6 9 9 12 15 13 13 10 6 6 7 8 8 7 7 7 6 8 9
Wind_Direction
224 223 223 220 223 221 218 216 213 212 211 209 206 201 197 202 204 203 201 203 204 205 206 207 200 200 200 204 204 202 200 200 200 199 195 193 202 194 191 194 198 201
222 220 219 220 222 218 220 219 213 207 209 210 209 205 204 203 207 204 200 202 199 203 203 203 199 198 199 202 203 202 196 192 197 178 180 179 188 193 195 185 187 185
222 220 219 218 220 219 215 217 214 206 204 207 207 207 205 201 205 201 199 200 200 202 204 204 200 199 201 199 197 194 189 189 186 174 181 185 183 190 191 176 176 177
225 225 222 221 222 222 216 212 210 210 208 208 205 202 201 196 198 197 200 194 197 199 202 201 199 197 194 189 188 191 190 189 184 176 179 175 174 177 172 169 167 169
228 226 225 224 221 219 215 211 208 207 207 205 201 201 198 190 197 199 197 193 198 197 194 193 196 197 191 192 189 180 177 159 163 163 164 163 161 162 160 161 161 155
229 226 225 222 216 212 213 212 206 204 206 206 207 203 205 200 198 197 191 192 194 192 190 189 190 189 181 179 179 177 170 159 163 158 148 142 128 147 152 162 156 150
226 221 219 215 215 213 216 216 215 208 211 213 211 207 205 201 196 193 193 192 191 189 188 186 184 179 174 168 167 165 163 159 152 154 143 137 127 129 151 148 145 141
219 214 212 209 209 210 215 214 212 207 210 209 205 199 194 193 189 188 188 189 188 188 188 182 181 170 170 163 160 157 155 157 154 147 145 153 158 143 147 152 153 149
220 212 207 205 206 208 210 210 210 208 195 196 193 185 190 187 188 183 185 185 186 184 182 179 172 168 169 167 162 159 159 164 163 154 157 162 164 161 158 149 146 143
221 210 208 206 208 208 208 206 201 195 182 192 188 172 181 188 185 183 179 183 182 179 174 172 165 164 168 172 163 159 161 159 158 153 141 156 143 151 151 144 149 144
214 185 193 208 210 203 206 193 189 181 178 182 162 173 181 171 180 173 176 177 176 175 169 164 166 163 162 165 161 157 158 155 154 151 148 153 153 147 147 146 152 156
213 204 207 207 203 200 200 192 183 180 178 174 175 171 158 171 169 173 175 177 175 170 163 159 154 163 159 155 152 135 145 148 147 143 143 143 146 150 155 156 157 157
148 206 197 201 197 184 158 157 168 166 165 171 168 162 160 163 162 162 174 160 154 148 155 153 150 146 143 138 143 141 139 133 119 130 138 133 137 142 143 145 143 143
201 190 190 171 151 139 153 153 144 152 154 140 152 158 165 167 162 157 147 140 142 154 146 145 142 134 139 140 141 136 131 132 132 133 117 114 116 117 115 114 114 118
127 148 105 93 129 118 134 142 138 130 122 130 137 132 125 130 134 137 134 110 63 66 121 137 142 143 150 142 134 133 137 139 138 131 125 126 119 109 109 110 116 123
123 128 119 127 135 134 135 125 126 123 121 115 110 110 108 115 117 119 130 129 118 106 98 106 84 106 154 155 147 145 144 135 127 128 129 130 129 126 123 129 133 139
144 140 138 140 136 122 117 127 125 128 119 110 106 118 118 117 127 122 125 128 119 123 118 123 137 137 146 141 137 138 137 135 136 137 139 141 147 152 151 149 146 136
140 142 137 136 139 139 137 129 127 129 128 125 125 125 125 123 121 129 129 124 111 110 126 137 135 150 151 142 141 138 140 141 145 147 153 161 165 159 155 157 147 142
154 151 146 145 149 145 139 138 138 136 140 140 143 145 136 132 137 134 131 135 138 137 138 141 142 162 155 151 150 148 144 145 155 162 164 162 156 155 154 156 152 148
159 153 152 150 147 149 146 149 151 153 151 143 136 141 140 132 139 143 142 146 147 144 146 151 153 168 158 153 149 149 152 154 161 157 148 145 148 150 154 157 159 157
158 158 139 139 152 155 155 158 155 142 137 143 149 151 149 149 151 149 156 152 152 159 150 155 160 164 161 156 154 156 156 144 136 130 128 132 142 156 160 158 158 159
166 157 154 152 152 155 157 153 150 152 144 141 135 135 127 134 139 150 152 157 145 151 158 157 158 169 161 159 159 160 151 135 133 132 137 147 157 160 158 155 158 158
171 158 156 157 155 154 159 153 145 132 127 142 137 142 139 145 153 149 150 152 156 154 152 161 155 169 166 163 162 156 147 138 136 137 142 151 156 155 156 161 167 168
166 161 156 156 156 163 155 145 145 147 147 156 152 148 158 160 148 133 142 152 157 162 157 157 162 169 165 165 162 161 151 138 142 139 140 141 147 152 157 164 168 171
161 155 159 155 156 153 149 147 152 154 151 163 157 154 148 139 141 146 142 148 154 153 146 151 160 165 166 166 162 155 148 141 139 137 139 147 151 155 163 162 166 176
150 153 149 154 154 143 144 157 152 146 160 169 154 151 147 152 147 144 138 138 137 144 159 162 162 164 168 165 159 158 155 144 148 146 150 153 158 160 160 167 172 176